DECAYED

NOAA 16 DEB, 41656 (Decayed)

Orbit data source: Space-Track

NOAA 16 DEB, 41656 was space debris in SSO originally from a launch on Thu, 21 Sep 2000 UTC launched from the Air Force Western Test Range (AFWTR). Debris objects in space refer to the collection of defunct objects orbiting the Earth. Examples of debris include non-operational satellites, rocket bodies, and fragments generated from explosions, collisions, or faulty payload assembly.

Not visible in the next 10 days
Identifier
41656, 2000-055NV
Orbit
Decayed
Country
Flag of USUS
Related business
Manufacturer
Unknown
Mission
Decayed spacecraft
Bus & Motor
Unknown
Mass
Unknown
Launch date (UTC)
2000-09-21 (26 years ago)
Launch vehicle
Unknown
Launch site
Air Force Western Test Range (AFWTR)
Object type
Payload
Rocket body
Debris
Shape & HBR
Unknown shape, 0.1 m
Radar Cross Section
Medium (>0.1 m² and <1 m²)

Expand to show TLE details & history
Last TLE update: 7 months ago

TLE from 7 months ago
0 NOAA 16 DEB
1 41656U 00055NV  26032.39070415  .00934185  00000-0  17052-1 0  9990
2 41656  98.8247 195.2394 0022426 320.9887  38.9740 15.46699240508941
Epoch: 2026-02-01T09:22Z
TLE epoch observation values (Epoch: 2026-02-01T09:22:36.838Z)
Latitude
0.00001°
Longitude
-77.01512°
Altitude
417.619 km
Speed
7.667 km/s
True Right ascension
13h 00m 57s
True Declination
0° 00' 00"
Sunlit
Object was in full shadow at epoch
Visualization orbit readout
Latitude
Unknown
Longitude
Unknown
Altitude
Unknown
Speed
Unknown
Apparent Right ascension
Unknown
Apparent Declination
Unknown
Sunlit
N/A
Visualization observer readout
Local Sidereal Time
21:35:52
Azimuth
Unknown
Elevation
Unknown
Doppler factor
Unknown
Orbital elements
Apogee altitude
438.64 km
Perigee altitude
408.134 km
Semi-major axis
6,801.524 km
Eccentricity
0.00224
Inclination
98.8247°
RAAN
195.2394°
Arg. of periapsis
320.9887°
True anomaly
39.13599°
Mean anomaly
38.974°
Eccentric anomaly
39.05496°
Mean motion
3.86931 °/min
Orbital period
93.04 mins
BSTAR
0.017052
Loading maneuver chart data...
Computing Atmospheric mass density...
Loading historical data...
Loading historical data...
Loading historical data...
Loading historical data...
Loading historical data...
Loading historical data...
Loading historical data...

Documentation

Showing up to 5 results
|